sat.trackr.live / text

‹ back to catalog

STARLINK-34938

NORAD 65236 · 2025-179B

PAYLOAD ACTIVE UNKNOWN

§ Identity

Operator
Country
US
Launch date
2025-08-18
Launch site
AFWTR
Launch vehicle
Mass (kg)
RCS (m²)

Purposes: comms

External: N2YO · Heavens-Above · Gunter

§ Orbital elements

Epoch: 2026-09-19T08:09:06.274944Z

Period
93.91 min
Inclination
97.2842°
Eccentricity
0.0001184
Mean motion
15.33445199 rev/d
Perigee alt
464.7 km
Apogee alt
466.4 km
Semi-major
6,843.7 km
B*
3.6090e-4
RAAN
301.6585°
Arg perigee
89.9355°
Mean anomaly
270.2024°
Rev number
6,118

§ Raw data

STARLINK-349381 65236U 25179B   26262.33965596  .00011594  00000+0  36090-3 0  99902 65236  97.2842 301.6585 0001184  89.9355 270.2024 15.33445199 61184

JSON: /api/v1/satellites/65236 · /tle

For live sub-satellite position, see the globe view (requires WebGL).

§ Visibility from observer

Set your observer location to see the next 7 days of passes ≥ 10°. The values pass through the URL so the page stays shareable.

No JS? Fill the form by hand. The geolocation button needs JavaScript.